Regional Weather Roundup
Issued by NWS

Home | Current Version | Previous Version | Graphics & Text | Print | Product List | Glossary On
Versions: 1 2 3 4 5 6 7 8 9 10 11 12 13 14 15 16 17 18 19 20 21 22 23 24 25 26 27
000
ASUS45 KCYS 291310
RWRWY

WYOMING REGIONAL WEATHER ROUNDUP
NATIONAL WEATHER SERVICE CHEYENNE WY
700 AM MDT SUN MAY 29 2016

NOTE:  "FAIR" INDICATES FEW OR NO CLOUDS BELOW 12,000 FEET
WITH NO SIGNIFICANT WEATHER AND/OR OBSTRUCTIONS TO VISIBILITY.

WYZ001-291400-
YELLOWSTONE NATIONAL PARK

CITY           SKY/WX    TMP DP  RH WIND       PRES   REMARKS
LK YELLOWSTONE   N/A     28  25  88 CALM      30.26S
W YELLOWSTONE  NOT AVBL

$$
WYZ002>013-054>058-071-098>099-291400-
NORTHERN WYOMING

CITY           SKY/WX    TMP DP  RH WIND       PRES   REMARKS
JACKSON        FAIR      28  28 100 CALM      30.24R
CODY           FAIR      48  36  61 SW5       30.11R
GREYBULL       PTSUNNY   51  45  79 SE3       30.09R
WORLAND        FAIR      50  45  83 CALM      30.10R
SHERIDAN       CLOUDY    47  44  90 S3        30.08R
BUFFALO        FAIR      54  40  59 SW5       30.12R
GILLETTE       FAIR      53  47  79 S3        30.09S
HULETT         FAIR      52  46  82 CALM      30.11R
NEWCASTLE      FAIR      52  41  66 N9        30.12R

$$
WYZ014>020-022>026-101>103-291400-
CENTRAL WYOMING

CITY           SKY/WX    TMP DP  RH WIND       PRES   REMARKS
BIG PINEY      FAIR      35  31  85 CALM      30.24R
PINEDALE       FAIR      32  28  86 W5        30.25R WCI  27
DUBOIS         FAIR      37  23  56 NW15      30.20S WCI  28
LANDER         FAIR      46  31  55 W7        30.14R
RIVERTON       FAIR      48  29  47 NW8       30.15R
CASPER         FAIR      45  42  89 SW7       30.14R
DOUGLAS          N/A    N/A N/A N/A MISG      30.14R

$$
WYZ021-027>030-104>119-291400-
SOUTHERN WYOMING

CITY           SKY/WX    TMP DP  RH WIND       PRES   REMARKS
EVANSTON       FAIR      45  32  60 SE5       30.22R
KEMMERER         N/A     37  32  81 N8        30.24R WCI  31
FORT BRIDGER   SUNNY     46  36  66 SE3       30.26R
ROCK SPRINGS   FAIR      44  36  73 CALM      30.23R
DIXON          FAIR      42  37  80 CALM      30.25R
RAWLINS        FAIR      45  36  70 CALM      30.22R
SARATOGA       FAIR      43  36  75 CALM      30.24S
LARAMIE        FAIR      44  36  73 SE7       30.23R
CHEYENNE       FAIR      50  38  63 W10       30.18S
TORRINGTON     FAIR      46  43  89 CALM      30.11R
PINE BLUFFS    FAIR      45  41  87 SW3       30.16S

$$




USA.gov is the U.S. government's official web portal to all federal, state and local government web resources and services.